When you browse on this site, cookies collect data to enhance your experience and personalize the content and advertising you see.
Visit our Privacy Policy to learn more. By continuing to use the site, you agree to this use of cookies and data.
  • In Spain
  • List of Countries
  • For 7 days
  • Water Temperature
  • Weather Map
  • Weather Widgets
  • user-avatar
    Login

    Hourly Weather Bragansa

    Today, 4 June, Thursday

    Time Temperature Precipitation Wind Pressure Humidity
    00:00 +15°C° 0 mm 2 mps 708 mmHg 91%
    01:00 +15°C° 0 mm 2 mps 708 mmHg 91%
    02:00 +14°C° 0 mm 2 mps 708 mmHg 92%
    03:00 +14°C° 0 mm 2 mps 707 mmHg 92%
    04:00 +14°C° 0 mm 2 mps 707 mmHg 90%
    05:00 +14°C° 0 mm 2 mps 707 mmHg 88%
    06:00 +13°C° 0 mm 2 mps 707 mmHg 85%
    07:00 +14°C° 0 mm 3 mps 708 mmHg 74%
    08:00 +17°C° 0 mm 4 mps 708 mmHg 63%
    09:00 +18°C° 0 mm 4 mps 708 mmHg 52%
    10:00 +19°C° 0 mm 5 mps 709 mmHg 49%
    11:00 +20°C° 0 mm 5 mps 709 mmHg 45%
    12:00 +21°C° 0 mm 6 mps 709 mmHg 42%
    13:00 +22°C° 0 mm 6 mps 709 mmHg 41%
    14:00 +22°C° 0 mm 6 mps 709 mmHg 40%
    15:00 +23°C° 0 mm 6 mps 709 mmHg 39%
    16:00 +22°C° 0 mm 5 mps 709 mmHg 41%
    17:00 +21°C° 0 mm 5 mps 709 mmHg 43%
    18:00 +21°C° 0 mm 4 mps 709 mmHg 45%
    19:00 +19°C° 0 mm 3 mps 709 mmHg 53%
    20:00 +17°C° 0 mm 2 mps 710 mmHg 60%
    21:00 +15°C° 0 mm 1 mps 710 mmHg 67%
    22:00 +15°C° 0 mm 1 mps 711 mmHg 70%
    23:00 +14°C° 0 mm 1 mps 711 mmHg 72%

    Tomorrow, 5 June, Friday

    Time Temperature Precipitation Wind Pressure Humidity
    00:00 +14°C° 0 mm 1 mps 711 mmHg 75%
    01:00 +13°C° 0 mm 1 mps 711 mmHg 77%
    02:00 +13°C° 0 mm 1 mps 711 mmHg 79%
    03:00 +12°C° 0 mm 1 mps 711 mmHg 81%
    04:00 +12°C° 0 mm 1 mps 711 mmHg 80%
    05:00 +13°C° 0 mm 1 mps 711 mmHg 79%
    06:00 +13°C° 0 mm 1 mps 711 mmHg 78%
    07:00 +15°C° 0 mm 1 mps 711 mmHg 69%
    08:00 +16°C° 0 mm 0 mps 711 mmHg 61%
    09:00 +18°C° 0 mm 0 mps 712 mmHg 52%
    10:00 +22°C° 0 mm 1 mps 712 mmHg 47%
    11:00 +23°C° 0 mm 1 mps 712 mmHg 42%
    12:00 +25°C° 0 mm 2 mps 712 mmHg 37%
    13:00 +25°C° 0 mm 2 mps 711 mmHg 37%
    14:00 +26°C° 0 mm 3 mps 711 mmHg 36%
    15:00 +27°C° 0 mm 3 mps 711 mmHg 35%
    16:00 +27°C° 0 mm 3 mps 711 mmHg 37%
    17:00 +26°C° 0 mm 3 mps 710 mmHg 40%
    18:00 +26°C° 0 mm 4 mps 710 mmHg 42%
    19:00 +24°C° 0 mm 3 mps 710 mmHg 50%
    20:00 +21°C° 0 mm 3 mps 710 mmHg 59%
    21:00 +19°C° 0 mm 2 mps 711 mmHg 67%
    22:00 +18°C° 0 mm 2 mps 711 mmHg 71%
    23:00 +17°C° 0 mm 2 mps 711 mmHg 75%

    Day after tomorrow, 6 June, Saturday

    Time Temperature Precipitation Wind Pressure Humidity
    00:00 +16°C° 0 mm 1 mps 711 mmHg 79%
    01:00 +16°C° 0 mm 1 mps 710 mmHg 81%
    02:00 +15°C° 0 mm 1 mps 710 mmHg 83%
    03:00 +15°C° 0 mm 1 mps 710 mmHg 85%
    04:00 +15°C° 0 mm 1 mps 710 mmHg 85%
    05:00 +15°C° 0 mm 1 mps 710 mmHg 84%
    06:00 +15°C° 0 mm 1 mps 710 mmHg 83%
    07:00 +18°C° 0 mm 1 mps 710 mmHg 76%
    08:00 +18°C° 0 mm 2 mps 710 mmHg 69%
    09:00 +20°C° 0 mm 2 mps 711 mmHg 62%
    10:00 +21°C° 0 mm 3 mps 711 mmHg 57%
    11:00 +24°C° 0 mm 3 mps 710 mmHg 52%
    12:00 +25°C° 0 mm 4 mps 710 mmHg 47%
    13:00 +25°C° 0.2 mm 4 mps 710 mmHg 47%
    14:00 +26°C° 0.2 mm 4 mps 710 mmHg 48%
    15:00 +26°C° 0.2 mm 5 mps 709 mmHg 48%
    16:00 +25°C° 0.8 mm 5 mps 709 mmHg 52%
    17:00 +23°C° 0.8 mm 5 mps 709 mmHg 56%
    18:00 +22°C° 0.8 mm 5 mps 709 mmHg 61%
    19:00 +20°C° 0.3 mm 5 mps 709 mmHg 67%
    20:00 +19°C° 0.3 mm 4 mps 709 mmHg 74%
    21:00 +17°C° 0.3 mm 4 mps 710 mmHg 80%
    22:00 +16°C° 0 mm 3 mps 710 mmHg 83%
    23:00 +16°C° 0 mm 2 mps 710 mmHg 85%

    7 June, Sunday

    Time Temperature Precipitation Wind Pressure Humidity
    00:00 +15°C° 0 mm 1 mps 710 mmHg 88%
    01:00 +15°C° 0 mm 1 mps 710 mmHg 88%
    02:00 +14°C° 0 mm 1 mps 709 mmHg 88%
    03:00 +14°C° 0 mm 1 mps 709 mmHg 88%
    04:00 +14°C° 0 mm 1 mps 710 mmHg 87%
    05:00 +14°C° 0 mm 1 mps 710 mmHg 86%
    06:00 +15°C° 0 mm 1 mps 710 mmHg 84%
    07:00 +16°C° 0 mm 1 mps 710 mmHg 78%
    08:00 +18°C° 0 mm 1 mps 711 mmHg 72%
    09:00 +20°C° 0 mm 1 mps 711 mmHg 66%
    10:00 +19°C° 0 mm 2 mps 711 mmHg 62%
    11:00 +20°C° 0 mm 2 mps 711 mmHg 58%
    12:00 +21°C° 0 mm 3 mps 711 mmHg 54%
    13:00 +22°C° 0 mm 3 mps 711 mmHg 51%
    14:00 +22°C° 0 mm 4 mps 711 mmHg 49%
    15:00 +23°C° 0 mm 4 mps 711 mmHg 47%
    16:00 +23°C° 0 mm 4 mps 711 mmHg 48%
    17:00 +22°C° 0 mm 5 mps 711 mmHg 48%
    18:00 +22°C° 0 mm 5 mps 711 mmHg 49%
    19:00 +20°C° 0 mm 4 mps 711 mmHg 55%
    20:00 +18°C° 0 mm 3 mps 711 mmHg 61%
    21:00 +16°C° 0 mm 3 mps 711 mmHg 66%
    22:00 +14°C° 0 mm 3 mps 712 mmHg 68%
    23:00 +13°C° 0 mm 3 mps 712 mmHg 70%

    8 June, Monday

    Time Temperature Precipitation Wind Pressure Humidity
    00:00 +13°C° 0 mm 3 mps 712 mmHg 72%
    01:00 +12°C° 0 mm 3 mps 712 mmHg 71%
    02:00 +11°C° 0 mm 3 mps 712 mmHg 71%
    03:00 +11°C° 0 mm 3 mps 712 mmHg 71%
    04:00 +10°C° 0 mm 3 mps 712 mmHg 70%
    05:00 +10°C° 0 mm 3 mps 712 mmHg 69%
    06:00 +10°C° 0 mm 3 mps 712 mmHg 69%
    07:00 +12°C° 0 mm 3 mps 712 mmHg 64%
    08:00 +13°C° 0 mm 3 mps 713 mmHg 58%
    09:00 +16°C° 0 mm 3 mps 713 mmHg 53%
    10:00 +18°C° 0 mm 3 mps 713 mmHg 49%
    11:00 +19°C° 0 mm 2 mps 713 mmHg 44%
    12:00 +21°C° 0 mm 2 mps 713 mmHg 39%
    13:00 +23°C° 0 mm 2 mps 713 mmHg 36%
    14:00 +24°C° 0 mm 2 mps 712 mmHg 33%
    15:00 +24°C° 0 mm 2 mps 712 mmHg 30%
    16:00 +24°C° 0 mm 2 mps 712 mmHg 31%
    17:00 +24°C° 0 mm 2 mps 712 mmHg 32%
    18:00 +23°C° 0 mm 2 mps 712 mmHg 33%
    19:00 +20°C° 0 mm 2 mps 712 mmHg 37%
    20:00 +19°C° 0 mm 2 mps 713 mmHg 41%
    21:00 +17°C° 0 mm 2 mps 713 mmHg 45%
    22:00 +16°C° 0 mm 3 mps 713 mmHg 52%
    23:00 +14°C° 0 mm 4 mps 713 mmHg 58%

    9 June, Tuesday

    Time Temperature Precipitation Wind Pressure Humidity
    00:00 +13°C° 0 mm 5 mps 713 mmHg 65%
    01:00 +12°C° 0 mm 4 mps 713 mmHg 66%
    02:00 +11°C° 0 mm 4 mps 713 mmHg 68%
    03:00 +11°C° 0 mm 4 mps 713 mmHg 69%
    04:00 +10°C° 0 mm 4 mps 713 mmHg 69%
    05:00 +10°C° 0 mm 4 mps 714 mmHg 69%
    06:00 +10°C° 0 mm 4 mps 714 mmHg 69%
    07:00 +12°C° 0 mm 4 mps 714 mmHg 63%
    08:00 +14°C° 0 mm 5 mps 714 mmHg 56%
    09:00 +16°C° 0 mm 5 mps 714 mmHg 50%
    10:00 +19°C° 0 mm 5 mps 714 mmHg 44%
    11:00 +21°C° 0 mm 5 mps 714 mmHg 38%
    12:00 +23°C° 0 mm 4 mps 715 mmHg 33%
    13:00 +23°C° 0 mm 4 mps 714 mmHg 30%
    14:00 +25°C° 0 mm 4 mps 714 mmHg 28%
    15:00 +26°C° 0 mm 3 mps 714 mmHg 26%
    16:00 +26°C° 0 mm 3 mps 714 mmHg 27%
    17:00 +25°C° 0 mm 3 mps 714 mmHg 28%
    18:00 +25°C° 0 mm 3 mps 714 mmHg 29%
    19:00 +22°C° 0 mm 3 mps 714 mmHg 36%
    20:00 +20°C° 0 mm 3 mps 714 mmHg 43%
    21:00 +17°C° 0 mm 3 mps 714 mmHg 50%
    22:00 +17°C° 0 mm 3 mps 714 mmHg 55%
    23:00 +16°C° 0 mm 3 mps 714 mmHg 61%
    Show more